This demonstration page uses our WeatherBlox Daily Observations layout. Learn more.

Left ArrowRight Arrow

Hourly Observations for April 7, 2021

Temp ( °F °C ) Dew Point ( °F °C ) Humidity (%) Winds ( mph kmh ) Pressure ( in mb ) Visibility ( mi km ) Precip ( " mm )
12:15 am 00:15 Clear 55 13 50 10 82 82 Calm 30 1016 10 16.0934 0 0
12:35 am 00:35 Clear 59 15 48 9 68 68 Calm 30 1016 10 16.0934 0 0
12:55 am 00:55 Clear 55 13 48 9 77 77 Calm 29.99 1016 10 16.0934 0 0
1:15 am 01:15 Clear 55 13 50 10 82 82 Calm 29.99 1016 10 16.0934 0 0
1:35 am 01:35 Clear 55 13 46 8 72 72 SSW 5 7 29.98 1015 10 16.0934 0 0
1:55 am 01:55 Clear 54 12 48 9 82 82 SW 3 6 29.97 1015 10 16.0934 0 0
2:15 am 02:15 Clear 54 12 46 8 77 77 Calm 29.98 1015 10 16.0934 0 0
2:35 am 02:35 Clear 54 12 46 8 77 77 Calm 29.98 1015 10 16.0934 0 0
2:55 am 02:55 Clear 54 12 46 8 77 77 Calm 29.97 1015 10 16.0934 0 0
3:15 am 03:15 Clear 54 12 46 8 77 77 Calm 29.97 1015 10 16.0934 0 0
3:35 am 03:35 Clear 50 10 46 8 88 88 Calm 29.98 1015 10 16.0934 0 0
3:55 am 03:55 Clear 54 12 46 8 77 77 E 6 9 29.97 1015 10 16.0934 0 0
4:15 am 04:15 Clear 50 10 46 8 88 88 Calm 29.98 1015 10 16.0934 0 0
4:35 am 04:35 Clear 50 10 46 8 88 88 Calm 29.98 1015 10 16.0934 0 0
4:55 am 04:55 Clear 50 10 46 8 88 88 Calm 29.99 1015 10 16.0934 0 0
5:15 am 05:15 Clear 50 10 45 7 82 82 Calm 29.99 1015 10 16.0934 0 0
5:35 am 05:35 Clear 50 10 45 7 82 82 N 3 6 29.99 1015 10 16.0934 0 0
5:55 am 05:55 Clear 50 10 45 7 82 82 Calm 30.01 1016 10 16.0934 0 0
6:15 am 06:15 Clear 52 11 45 7 77 77 Calm 30 1016 10 16.0934 0 0
6:35 am 06:35 Clear 50 10 45 7 82 82 Calm 30.01 1016 10 16.0934 0 0
6:55 am 06:55 Sunny 46 8 45 7 93 93 Calm 30.02 1017 10 16.0934 0 0
7:15 am 07:15 Sunny 46 8 45 7 93 93 Calm 30.02 1017 10 16.0934 0 0
7:35 am 07:35 Sunny 50 10 46 8 88 88 Calm 30.02 1016 10 16.0934 0 0
7:55 am 07:55 Sunny 52 11 46 8 82 82 Calm 30.02 1017 10 16.0934 0 0
8:15 am 08:15 Sunny 54 12 46 8 77 77 Calm 30.02 1017 10 16.0934 0 0
8:35 am 08:35 Sunny 55 13 48 9 77 77 Calm 30.02 1017 10 16.0934 0 0
8:55 am 08:55 Sunny 57 14 46 8 67 67 Calm 30.01 1016 10 16.0934 0 0
9:15 am 09:15 Sunny 61 16 45 7 55 55 Calm 30.01 1016 10 16.0934 0 0
9:35 am 09:35 Sunny 61 16 46 8 59 59 Calm 30 1016 10 16.0934 0 0
9:55 am 09:55 Sunny 63 17 46 8 56 56 Calm 30.01 1016 10 16.0934 0 0
10:15 am 10:15 Sunny 64 18 48 9 56 56 Calm 30 1016 10 16.0934 0 0
10:35 am 10:35 Sunny 68 20 48 9 49 49 Calm 30 1016 10 16.0934 0 0
10:55 am 10:55 Sunny 70 21 48 9 46 46 Calm 30 1016 10 16.0934 0 0
11:15 am 11:15 Sunny 72 22 50 10 47 47 Calm 29.99 1016 10 16.0934 0 0
11:35 am 11:35 Sunny 72 22 50 10 47 47 Calm 29.98 1015 10 16.0934 0 0
11:55 am 11:55 Sunny 75 24 52 11 44 44 NNW 5 7 29.97 1015 10 16.0934 0 0
12:15 pm 12:15 Sunny 77 25 52 11 42 42 NNW 5 7 29.96 1015 10 16.0934 0 0
12:35 pm 12:35 Sunny 77 25 52 11 42 42 NNW 9 15 29.95 1014 10 16.0934 0 0
12:55 pm 12:55 Sunny 77 25 52 11 42 42 NNW 10 17 29.95 1014 10 16.0934 0 0
1:15 pm 13:15 Sunny 77 25 52 11 42 42 NW 5 7 29.94 1014 10 16.0934 0 0
1:35 pm 13:35 Sunny 79 26 52 11 39 39 N 5 7 29.93 1014 10 16.0934 0 0
1:55 pm 13:55 Partly Cloudy 79 26 54 12 42 42 NNE 9 15 29.93 1014 10 16.0934 0 0
2:15 pm 14:15 Sunny 79 26 52 11 39 39 N 7 11 29.93 1014 10 16.0934 0 0
2:35 pm 14:35 Partly Cloudy 79 26 52 11 39 39 NW 5 7 29.92 1013 10 16.0934 0 0
2:55 pm 14:55 Partly Cloudy 81 27 52 11 37 37 N 8 13 29.91 1013 10 16.0934 0 0
3:15 pm 15:15 Sunny 81 27 52 11 37 37 W 5 7 29.9 1013 10 16.0934 0 0
3:35 pm 15:35 Partly Cloudy 81 27 52 11 37 37 Calm 29.89 1012 10 16.0934 0 0
3:55 pm 15:55 Partly Cloudy 79 26 50 10 37 37 Calm 29.89 1012 10 16.0934 0 0
4:15 pm 16:15 Partly Cloudy 79 26 50 10 37 37 N 3 6 29.88 1012 10 16.0934 0 0
4:35 pm 16:35 Mostly Cloudy 79 26 50 10 37 37 NNE 3 6 29.88 1012 10 16.0934 0 0
4:55 pm 16:55 Cloudy 79 26 52 11 39 39 NE 9 15 29.89 1012 10 16.0934 0 0
5:15 pm 17:15 Mostly Cloudy 77 25 52 11 42 42 NE 8 13 29.89 1012 10 16.0934 0 0
5:35 pm 17:35 Cloudy 77 25 52 11 42 42 NE 6 9 29.9 1013 10 16.0934 0 0
5:55 pm 17:55 Cloudy 77 25 52 11 42 42 NE 3 6 29.9 1013 10 16.0934 0 0
6:15 pm 18:15 Cloudy 77 25 52 11 42 42 ENE 5 7 29.9 1013 10 16.0934 0 0
6:35 pm 18:35 Cloudy 77 25 52 11 42 42 Calm 29.9 1013 10 16.0934 0 0
6:55 pm 18:55 Mostly Cloudy 77 25 52 11 42 42 Calm 29.9 1013 10 16.0934 0 0
7:15 pm 19:15 Sunny 77 25 52 11 42 42 SE 3 6 29.89 1012 10 16.0934 0 0
7:35 pm 19:35 Sunny 73 23 52 11 47 47 SSE 5 7 29.9 1012 10 16.0934 0 0
7:55 pm 19:55 Clear 73 23 52 11 47 47 Calm 29.91 1013 10 16.0934 0 0
8:15 pm 20:15 Clear 73 23 52 11 47 47 E 3 6 29.92 1013 10 16.0934 0 0
8:35 pm 20:35 Clear 72 22 52 11 50 50 ESE 6 9 29.93 1013 10 16.0934 0 0
8:55 pm 20:55 Clear 72 22 52 11 50 50 E 6 9 29.94 1014 10 16.0934 0 0
9:15 pm 21:15 Clear 72 22 52 11 50 50 ESE 6 9 29.95 1014 10 16.0934 0 0
9:35 pm 21:35 Partly Cloudy 70 21 50 10 50 50 E 5 7 29.96 1015 10 16.0934 0 0
9:55 pm 21:55 Mostly Cloudy 70 21 50 10 50 50 E 6 9 29.96 1015 10 16.0934 0 0
10:15 pm 22:15 Mostly Cloudy 68 20 50 10 53 53 ENE 7 11 29.97 1015 10 16.0934 0 0
10:35 pm 22:35 Cloudy 68 20 50 10 53 53 ENE 8 13 29.99 1016 10 16.0934 0 0
10:55 pm 22:55 Mostly Cloudy 68 20 48 9 49 49 ESE 9 15 29.97 1015 10 16.0934 0 0
11:15 pm 23:15 Cloudy 68 20 48 9 49 49 SE 9 15 29.97 1015 10 16.0934 0 0
11:35 pm 23:35 Cloudy 68 20 46 8 46 46 SE 7 11 29.97 1015 10 16.0934 0 0
11:55 pm 23:55 Cloudy 66 19 46 8 49 49 ESE 6 9 29.97 1015 10 16.0934 0 0

Powered by AerisWeather